| time (UTC) | temp C | wind direction | speed KPH | gust KPH | rain 1hr cm | rain 24hr cm | rain mn cm | humidity % | barometer mb |
| 20260505122511 | -17 | 0.0 | 0.0 | 0.00 | 0.05 | 0.03 | 1009.5 | ||
| 20260505122013 | -17 | 0.0 | 0.0 | 0.00 | 0.05 | 0.03 | 1009.4 | ||
| 20260505121534 | -17 | 0.0 | 0.0 | 0.00 | 0.05 | 0.03 | 1009.4 | ||
| 20260505121010 | -17 | 0.0 | 0.0 | 0.00 | 0.05 | 0.03 | 1009.5 | ||
| 20260505120037 | -17 | 0.0 | 0.0 | 0.00 | 0.05 | 0.03 | 1009.5 | ||
| 20260505115512 | 20 | 0.0 | 0.0 | 0.00 | 0.05 | 0.03 | 90 | 1009.4 | |
| 20260505115006 | 20 | 4.8 | 19.3 | 0.00 | 0.05 | 0.03 | 90 | 1009.3 | |
| 20260505114507 | 20 | 30 | 6.4 | 16.1 | 0.00 | 0.05 | 0.03 | 90 | 1009.2 |
| 20260505114002 | 20 | 360 | 4.8 | 9.7 | 0.00 | 0.05 | 0.03 | 90 | 1009.3 |
| 20260505113503 | 20 | 360 | 4.8 | 12.9 | 0.00 | 0.05 | 0.03 | 90 | 1009.4 |
| 20260505113010 | 20 | 34 | 3.2 | 12.9 | 0.00 | 0.05 | 0.03 | 90 | 1009.3 |
| 20260505112507 | 20 | 360 | 3.2 | 12.9 | 0.00 | 0.05 | 0.03 | 90 | 1009.3 |
| 20260505112008 | 20 | 35 | 3.2 | 9.7 | 0.00 | 0.05 | 0.03 | 90 | 1009.3 |
| 20260505111507 | 20 | 30 | 3.2 | 8.0 | 0.00 | 0.05 | 0.03 | 90 | 1009.3 |
| 20260505111003 | 20 | 37 | 4.8 | 8.0 | 0.00 | 0.05 | 0.03 | 90 | 1009.2 |
| 20260505110502 | 19 | 35 | 3.2 | 8.0 | 0.00 | 0.05 | 0.03 | 90 | 1009.2 |
| 20260505102004 | 19 | 25 | 3.2 | 12.9 | 0.00 | 0.05 | 0.03 | 89 | 1009.3 |
| 20260505101515 | 19 | 30 | 4.8 | 12.9 | 0.00 | 0.05 | 0.03 | 89 | 1009.3 |
| 20260505101007 | 19 | 32 | 1.6 | 9.7 | 0.00 | 0.05 | 0.03 | 89 | 1009.3 |
| 20260505100507 | 19 | 32 | 3.2 | 9.7 | 0.00 | 0.05 | 0.03 | 89 | 1009.2 |
| 20260505100003 | 19 | 28 | 1.6 | 14.5 | 0.00 | 0.05 | 0.03 | 89 | 1009.4 |
| 20260505095502 | 20 | 28 | 3.2 | 16.1 | 0.00 | 0.05 | 0.03 | 89 | 1009.3 |
| 20260505095002 | 20 | 29 | 1.6 | 16.1 | 0.00 | 0.05 | 0.03 | 89 | 1009.4 |
| 20260505094504 | 19 | 32 | 1.6 | 12.9 | 0.00 | 0.05 | 0.03 | 89 | 1009.5 |
| 20260505094007 | 19 | 24 | 3.2 | 12.9 | 0.00 | 0.05 | 0.03 | 89 | 1009.6 |
| 20260505093005 | 19 | 23 | 1.6 | 9.7 | 0.00 | 0.05 | 0.03 | 89 | 1009.7 |
| 20260505092503 | 19 | 33 | 3.2 | 9.7 | 0.00 | 0.05 | 0.03 | 88 | 1009.8 |
| 20260505092007 | 19 | 34 | 1.6 | 9.7 | 0.00 | 0.05 | 0.03 | 88 | 1009.8 |
| 20260505091506 | 19 | 34 | 3.2 | 9.7 | 0.00 | 0.05 | 0.03 | 88 | 1009.8 |
| 20260505091009 | 19 | 36 | 3.2 | 9.7 | 0.00 | 0.05 | 0.03 | 88 | 1009.7 |
| 20260505090503 | 19 | 26 | 1.6 | 12.9 | 0.00 | 0.05 | 0.03 | 88 | 1009.8 |
| 20260505090043 | 19 | 360 | 0.0 | 12.9 | 0.00 | 0.05 | 0.03 | 88 | 1009.8 |
| 20260505085507 | 19 | 32 | 3.2 | 8.0 | 0.00 | 0.05 | 0.03 | 88 | 1009.9 |
| 20260505085009 | 19 | 26 | 3.2 | 9.7 | 0.03 | 0.05 | 0.03 | 88 | 1010.0 |
| 20260505084526 | 19 | 31 | 3.2 | 9.7 | 0.03 | 0.05 | 0.03 | 88 | 1010.0 |
| 20260505084012 | 19 | 360 | 1.6 | 9.7 | 0.03 | 0.05 | 0.03 | 88 | 1010.0 |
| 20260505083502 | 19 | 36 | 3.2 | 12.9 | 0.03 | 0.05 | 0.03 | 88 | 1010.0 |
| 20260505083010 | 19 | 34 | 4.8 | 12.9 | 0.03 | 0.05 | 0.03 | 88 | 1010.1 |
| 20260505082504 | 19 | 28 | 4.8 | 12.9 | 0.03 | 0.05 | 0.03 | 88 | 1010.1 |
| 20260505082006 | 19 | 26 | 3.2 | 9.7 | 0.03 | 0.05 | 0.03 | 87 | 1010.2 |
| 20260505081509 | 19 | 34 | 3.2 | 9.7 | 0.03 | 0.05 | 0.03 | 87 | 1010.2 |
| 20260505081003 | 19 | 29 | 3.2 | 9.7 | 0.03 | 0.05 | 0.03 | 87 | 1010.2 |
| 20260505080505 | 19 | 26 | 3.2 | 9.7 | 0.03 | 0.05 | 0.03 | 87 | 1010.4 |
| 20260505080008 | 19 | 360 | 0.0 | 14.5 | 0.03 | 0.05 | 0.03 | 87 | 1010.3 |
| 20260505075503 | 19 | 35 | 3.2 | 14.5 | 0.03 | 0.05 | 0.03 | 87 | 1010.3 |
| 20260505075007 | 19 | 31 | 1.6 | 9.7 | 0.00 | 0.03 | 0.00 | 87 | 1010.2 |
| 20260505074519 | 20 | 27 | 1.6 | 9.7 | 0.00 | 0.03 | 0.00 | 86 | 1010.2 |
| 20260505074008 | 20 | 22 | 0.0 | 9.7 | 0.00 | 0.03 | 0.00 | 86 | 1010.3 |
| 20260505073507 | 20 | 360 | 3.2 | 12.9 | 0.00 | 0.03 | 0.00 | 86 | 1010.2 |
| 20260505073022 | 20 | 27 | 3.2 | 12.9 | 0.00 | 0.03 | 0.00 | 86 | 1010.3 |
| 20260505072507 | 20 | 31 | 3.2 | 9.7 | 0.00 | 0.03 | 0.00 | 86 | 1010.4 |
| 20260505072015 | 20 | 28 | 1.6 | 12.9 | 0.00 | 0.03 | 0.00 | 85 | 1010.5 |
| 20260505071505 | 20 | 26 | 4.8 | 12.9 | 0.00 | 0.03 | 0.00 | 85 | 1010.5 |
| 20260505071005 | 20 | 34 | 3.2 | 12.9 | 0.00 | 0.03 | 0.00 | 85 | 1010.6 |
| 20260505070503 | 20 | 28 | 1.6 | 12.9 | 0.00 | 0.03 | 0.00 | 85 | 1010.6 |
| 20260505070016 | 20 | 30 | 3.2 | 12.9 | 0.00 | 0.03 | 0.00 | 85 | 1010.6 |
| 20260505065503 | 20 | 33 | 3.2 | 14.5 | 0.00 | 0.03 | 0.00 | 85 | 1010.7 |
| 20260505065004 | 20 | 30 | 4.8 | 16.1 | 0.00 | 0.03 | 0.00 | 85 | 1010.7 |
| 20260505064512 | 20 | 28 | 4.8 | 16.1 | 0.00 | 0.03 | 0.00 | 84 | 1010.8 |
| 20260505064012 | 20 | 29 | 3.2 | 12.9 | 0.00 | 0.03 | 0.00 | 84 | 1010.8 |
| 20260505063515 | 20 | 30 | 3.2 | 17.7 | 0.00 | 0.03 | 0.00 | 84 | 1010.8 |
| 20260505063017 | 20 | 26 | 6.4 | 17.7 | 0.00 | 0.03 | 0.00 | 84 | 1010.7 |
| 20260505062508 | 20 | 360 | 3.2 | 9.7 | 0.00 | 0.03 | 0.00 | 84 | 1010.7 |
| 20260505062012 | 20 | 23 | 3.2 | 12.9 | 0.00 | 0.03 | 0.00 | 84 | 1010.8 |
| 20260505061524 | 20 | 23 | 4.8 | 12.9 | 0.00 | 0.03 | 0.00 | 83 | 1010.9 |
| 20260505061009 | 20 | 32 | 3.2 | 12.9 | 0.00 | 0.03 | 0.00 | 83 | 1011.0 |
| 20260505060504 | 20 | 360 | 3.2 | 12.9 | 0.00 | 0.03 | 0.00 | 83 | 1011.0 |
| 20260505060013 | 20 | 360 | 4.8 | 9.7 | 0.00 | 0.03 | 0.00 | 83 | 1010.9 |
| 20260505055505 | 20 | 360 | 1.6 | 12.9 | 0.00 | 0.03 | 0.00 | 83 | 1010.9 |
| 20260505055007 | 20 | 360 | 4.8 | 17.7 | 0.00 | 0.03 | 0.00 | 83 | 1011.0 |
| 20260505054511 | 20 | 360 | 3.2 | 17.7 | 0.00 | 0.03 | 0.00 | 83 | 1011.1 |
| 20260505054009 | 20 | 360 | 4.8 | 19.3 | 0.00 | 0.03 | 0.00 | 83 | 1011.1 |
| 20260505053508 | 20 | 360 | 4.8 | 19.3 | 0.00 | 0.03 | 0.00 | 83 | 1011.2 |
| 20260505053021 | 20 | 32 | 8.0 | 17.7 | 0.00 | 0.03 | 0.00 | 83 | 1011.3 |
| 20260505052513 | 20 | 360 | 4.8 | 14.5 | 0.00 | 0.03 | 0.00 | 82 | 1011.3 |
| 20260505052007 | 20 | 30 | 4.8 | 17.7 | 0.00 | 0.03 | 0.00 | 82 | 1011.2 |
| 20260505051522 | 20 | 31 | 4.8 | 17.7 | 0.00 | 0.03 | 0.00 | 82 | 1011.1 |
| 20260505051007 | 20 | 32 | 6.4 | 17.7 | 0.00 | 0.03 | 0.00 | 82 | 1011.2 |
| 20260505050511 | 20 | 32 | 4.8 | 22.5 | 0.00 | 0.03 | 0.00 | 82 | 1011.3 |
| 20260505041536 | 20 | 24 | 1.6 | 16.1 | 0.00 | 0.03 | 0.03 | 81 | 1011.4 |
| 20260505041009 | 20 | 20 | 3.2 | 16.1 | 0.00 | 0.03 | 0.03 | 81 | 1011.5 |
| 20260505040512 | 20 | 28 | 3.2 | 12.9 | 0.00 | 0.03 | 0.03 | 81 | 1011.6 |
| 20260505040020 | 20 | 26 | 4.8 | 12.9 | 0.00 | 0.03 | 0.03 | 81 | 1011.7 |
| 20260505035503 | 20 | 31 | 3.2 | 12.9 | 0.00 | 0.03 | 0.03 | 81 | 1011.7 |
| 20260505035002 | 20 | 26 | 1.6 | 9.7 | 0.00 | 0.03 | 0.03 | 81 | 1011.6 |
| 20260505034511 | 20 | 28 | 1.6 | 9.7 | 0.00 | 0.03 | 0.03 | 80 | 1011.6 |
| 20260505034006 | 20 | 36 | 3.2 | 14.5 | 0.00 | 0.03 | 0.03 | 80 | 1011.5 |
| 20260505033507 | 20 | 29 | 3.2 | 16.1 | 0.00 | 0.03 | 0.03 | 80 | 1011.3 |
| 20260505033012 | 20 | 34 | 3.2 | 16.1 | 0.00 | 0.03 | 0.03 | 80 | 1011.5 |
| 20260505032504 | 20 | 33 | 4.8 | 14.5 | 0.00 | 0.03 | 0.03 | 80 | 1011.6 |
| 20260505032008 | 20 | 360 | 3.2 | 12.9 | 0.00 | 0.03 | 0.03 | 80 | 1011.6 |
| 20260505031518 | 20 | 360 | 1.6 | 9.7 | 0.00 | 0.03 | 0.03 | 79 | 1011.6 |
| 20260505031010 | 20 | 30 | 3.2 | 9.7 | 0.00 | 0.03 | 0.03 | 79 | 1011.9 |
| 20260505030507 | 20 | 32 | 3.2 | 8.0 | 0.00 | 0.03 | 0.03 | 79 | 1011.9 |
| 20260505030021 | 20 | 29 | 1.6 | 8.0 | 0.00 | 0.03 | 0.03 | 79 | 1011.7 |
| 20260505025507 | 20 | 31 | 1.6 | 8.0 | 0.00 | 0.03 | 0.03 | 78 | 1011.6 |
| 20260505025012 | 20 | 26 | 0.0 | 6.4 | 0.00 | 0.03 | 0.03 | 78 | 1011.7 |
| 20260505024526 | 20 | 32 | 0.0 | 6.4 | 0.00 | 0.03 | 0.03 | 78 | 1011.7 |
| 20260505024003 | 20 | 25 | 1.6 | 9.7 | 0.00 | 0.03 | 0.03 | 78 | 1011.4 |
| 20260505023503 | 20 | 30 | 0.0 | 9.7 | 0.00 | 0.03 | 0.03 | 77 | 1011.5 |
| 20260505023007 | 20 | 24 | 1.6 | 8.0 | 0.00 | 0.03 | 0.03 | 76 | 1011.6 |
| 20260505022503 | 21 | 32 | 3.2 | 9.7 | 0.00 | 0.03 | 0.03 | 76 | 1011.4 |
| 20260505022003 | 21 | 30 | 1.6 | 14.5 | 0.00 | 0.03 | 0.03 | 76 | 1011.3 |
| 20260505021514 | 21 | 28 | 1.6 | 14.5 | 0.00 | 0.03 | 0.03 | 76 | 1011.3 |
| 20260505021007 | 21 | 33 | 3.2 | 8.0 | 0.00 | 0.03 | 0.03 | 75 | 1011.3 |
| 20260505020507 | 21 | 25 | 1.6 | 8.0 | 0.00 | 0.03 | 0.03 | 75 | 1011.2 |
| 20260505020021 | 21 | 20 | 3.2 | 8.0 | 0.00 | 0.03 | 0.03 | 74 | 1011.2 |
| 20260505015512 | 21 | 31 | 3.2 | 14.5 | 0.00 | 0.03 | 0.03 | 74 | 1011.2 |
| 20260505015009 | 21 | 27 | 6.4 | 16.1 | 0.00 | 0.03 | 0.03 | 74 | 1011.1 |
| 20260505014519 | 21 | 27 | 1.6 | 16.1 | 0.00 | 0.03 | 0.03 | 73 | 1011.2 |
| 20260505014009 | 21 | 30 | 4.8 | 14.5 | 0.00 | 0.03 | 0.03 | 73 | 1011.2 |
| 20260505013507 | 21 | 22 | 4.8 | 14.5 | 0.00 | 0.03 | 0.03 | 73 | 1011.1 |
| 20260505013025 | 21 | 22 | 1.6 | 8.0 | 0.00 | 0.03 | 0.03 | 72 | 1011.1 |
| 20260505012003 | 22 | 29 | 4.8 | 14.5 | 0.00 | 0.03 | 0.03 | 71 | 1011.0 |
| 20260505011511 | 22 | 19 | 1.6 | 20.9 | 0.00 | 0.03 | 0.03 | 71 | 1011.0 |
| 20260505011004 | 22 | 29 | 9.7 | 20.9 | 0.00 | 0.03 | 0.03 | 70 | 1010.7 |
| 20260505010507 | 22 | 29 | 4.8 | 16.1 | 0.00 | 0.03 | 0.03 | 70 | 1010.7 |
| 20260505010015 | 22 | 28 | 3.2 | 16.1 | 0.00 | 0.03 | 0.03 | 70 | 1010.9 |
| 20260505005508 | 22 | 28 | 3.2 | 0.0 | 0.00 | 0.03 | 0.03 | 69 | 1010.9 |
| 20260505005010 | -17 | 0.0 | 0.0 | 0.00 | 0.03 | 0.03 | 1010.9 | ||
| 20260505004535 | -17 | 0.0 | 0.0 | 0.00 | 0.03 | 0.03 | 1010.9 | ||
| 20260505004011 | -17 | 0.0 | 0.0 | 0.00 | 0.03 | 0.03 | 1010.8 | ||
| 20260505003512 | -17 | 0.0 | 0.0 | 0.00 | 0.03 | 0.03 | 1011.0 | ||
| 20260505003030 | -17 | 0.0 | 0.0 | 0.00 | 0.03 | 0.03 | 1011.1 | ||
| 20260505002513 | -17 | 0.0 | 0.0 | 0.00 | 0.03 | 0.03 | 1011.1 | ||
| 20260505002013 | -17 | 0.0 | 0.0 | 0.00 | 0.03 | 0.03 | 1011.0 | ||
| 20260505001530 | -17 | 0.0 | 0.0 | 0.00 | 0.03 | 0.03 | 1011.0 | ||
| 20260505001011 | -17 | 0.0 | 0.0 | 0.00 | 0.03 | 0.03 | 1011.0 | ||
| 20260505000514 | -17 | 0.0 | 0.0 | 0.00 | 0.03 | 0.03 | 1011.1 | ||
| 20260505000034 | -17 | 0.0 | 0.0 | 0.00 | 0.03 | 0.03 | 1011.2 | ||
| 20260504235512 | -17 | 0.0 | 0.0 | 0.00 | 0.03 | 0.03 | 1011.2 | ||
| 20260504235012 | -17 | 0.0 | 0.0 | 0.00 | 0.03 | 0.03 | 1011.1 | ||
| 20260504234526 | -17 | 0.0 | 0.0 | 0.00 | 0.03 | 0.03 | 1011.1 | ||
| 20260504234010 | -17 | 0.0 | 0.0 | 0.00 | 0.03 | 0.03 | 1011.1 | ||
| 20260504233512 | -17 | 0.0 | 0.0 | 0.00 | 0.03 | 0.03 | 1011.2 | ||
| 20260504233032 | -17 | 0.0 | 0.0 | 0.00 | 0.03 | 0.03 | 1011.2 | ||
| 20260504232513 | -17 | 0.0 | 0.0 | 0.00 | 0.03 | 0.03 | 1011.5 | ||
| 20260504232012 | -17 | 0.0 | 0.0 | 0.00 | 0.03 | 0.03 | 1011.5 | ||
| 20260504231531 | -17 | 0.0 | 0.0 | 0.00 | 0.03 | 0.03 | 1011.6 | ||
| 20260504231013 | -17 | 0.0 | 0.0 | 0.00 | 0.03 | 0.03 | 1011.6 | ||
| 20260504230512 | 24 | 0.0 | 0.0 | 0.00 | 0.03 | 0.03 | 62 | 1011.5 | |
| 20260504230028 | 24 | 22 | 6.4 | 19.3 | 0.00 | 0.03 | 0.03 | 62 | 1011.5 |
| 20260504225510 | 24 | 24 | 12.9 | 0.0 | 0.00 | 0.03 | 0.03 | 62 | 1011.8 |
| 20260504225011 | -17 | 0.0 | 0.0 | 0.00 | 0.03 | 0.03 | 1011.8 | ||
| 20260504224530 | -17 | 0.0 | 0.0 | 0.00 | 0.03 | 0.03 | 1011.8 | ||
| 20260504224012 | -17 | 0.0 | 0.0 | 0.00 | 0.03 | 0.03 | 1011.7 | ||
| 20260504223513 | -17 | 0.0 | 0.0 | 0.00 | 0.03 | 0.03 | 1011.8 | ||
| 20260504223027 | -17 | 0.0 | 0.0 | 0.00 | 0.03 | 0.03 | 1011.9 | ||
| 20260504222518 | -17 | 0.0 | 0.0 | 0.00 | 0.03 | 0.03 | 1012.0 | ||
| 20260504222016 | -17 | 0.0 | 0.0 | 0.00 | 0.03 | 0.03 | 1011.8 | ||
| 20260504221534 | -17 | 0.0 | 0.0 | 0.00 | 0.03 | 0.03 | 1011.9 | ||
| 20260504221013 | -17 | 0.0 | 0.0 | 0.00 | 0.03 | 0.03 | 1011.9 | ||
| 20260504220513 | -17 | 0.0 | 0.0 | 0.00 | 0.03 | 0.03 | 1012.1 | ||
| 20260504220029 | -17 | 0.0 | 0.0 | 0.00 | 0.03 | 0.03 | 1012.2 | ||
| 20260504215520 | -17 | 0.0 | 0.0 | 0.00 | 0.03 | 0.03 | 1012.1 | ||
| 20260504215014 | -17 | 0.0 | 0.0 | 0.00 | 0.03 | 0.03 | 1012.1 | ||
| 20260504214529 | -17 | 0.0 | 0.0 | 0.00 | 0.03 | 0.03 | 1012.2 | ||
| 20260504214011 | -17 | 0.0 | 0.0 | 0.00 | 0.03 | 0.03 | 1012.3 | ||
| 20260504213513 | -17 | 0.0 | 0.0 | 0.00 | 0.03 | 0.03 | 1012.3 | ||
| 20260504213052 | -17 | 0.0 | 0.0 | 0.00 | 0.03 | 0.03 | 1012.4 | ||
| 20260504212511 | -17 | 0.0 | 0.0 | 0.00 | 0.03 | 0.03 | 1012.4 | ||
| 20260504212014 | -17 | 0.0 | 0.0 | 0.00 | 0.03 | 0.03 | 1012.5 | ||
| 20260504211526 | -17 | 0.0 | 0.0 | 0.00 | 0.03 | 0.03 | 1012.6 | ||
| 20260504211016 | -17 | 0.0 | 0.0 | 0.00 | 0.03 | 0.03 | 1012.5 | ||
| 20260504210513 | -17 | 0.0 | 0.0 | 0.00 | 0.03 | 0.03 | 1012.7 | ||
| 20260504210030 | -17 | 0.0 | 0.0 | 0.00 | 0.03 | 0.03 | 1012.7 | ||
| 20260504205513 | -17 | 0.0 | 0.0 | 0.00 | 0.03 | 0.03 | 1012.7 | ||
| 20260504205012 | -17 | 0.0 | 0.0 | 0.00 | 0.03 | 0.03 | 1012.9 | ||
| 20260504204530 | -17 | 0.0 | 0.0 | 0.00 | 0.03 | 0.03 | 1012.9 | ||
| 20260504204014 | -17 | 0.0 | 0.0 | 0.00 | 0.03 | 0.03 | 1012.9 | ||
| 20260504203513 | -17 | 0.0 | 0.0 | 0.00 | 0.03 | 0.03 | 1013.0 | ||
| 20260504203034 | -17 | 0.0 | 0.0 | 0.00 | 0.03 | 0.03 | 1013.1 | ||
| 20260504202513 | -17 | 0.0 | 0.0 | 0.00 | 0.03 | 0.03 | 1013.3 | ||
| 20260504202012 | -17 | 0.0 | 0.0 | 0.00 | 0.03 | 0.03 | 1013.4 | ||
| 20260504201533 | -17 | 0.0 | 0.0 | 0.00 | 0.03 | 0.03 | 1013.5 | ||
| 20260504201017 | -17 | 0.0 | 0.0 | 0.00 | 0.03 | 0.03 | 1013.6 | ||
| 20260504200538 | -17 | 0.0 | 0.0 | 0.00 | 0.03 | 0.03 | 1013.5 | ||
| 20260504200029 | -17 | 0.0 | 0.0 | 0.00 | 0.03 | 0.03 | 1013.6 | ||
| 20260504195512 | -17 | 0.0 | 0.0 | 0.00 | 0.03 | 0.03 | 1013.6 | ||
| 20260504195013 | -17 | 0.0 | 0.0 | 0.00 | 0.03 | 0.03 | 1013.6 | ||
| 20260504194531 | -17 | 0.0 | 0.0 | 0.00 | 0.03 | 0.03 | 1013.7 | ||
| 20260504194013 | -17 | 0.0 | 0.0 | 0.00 | 0.03 | 0.03 | 1013.6 | ||
| 20260504193037 | -17 | 0.0 | 0.0 | 0.00 | 0.03 | 0.03 | 1013.9 | ||
| 20260504192513 | -17 | 0.0 | 0.0 | 0.00 | 0.03 | 0.03 | 1013.9 | ||
| 20260504191532 | -17 | 0.0 | 0.0 | 0.00 | 0.03 | 0.03 | 1014.1 | ||
| 20260504191017 | -17 | 0.0 | 0.0 | 0.00 | 0.03 | 0.03 | 1014.0 | ||
| 20260504190514 | -17 | 0.0 | 0.0 | 0.00 | 0.03 | 0.03 | 1014.3 | ||
| 20260504190031 | -17 | 0.0 | 0.0 | 0.00 | 0.03 | 0.03 | 1014.4 | ||
| 20260504185519 | -17 | 0.0 | 0.0 | 0.00 | 0.03 | 0.03 | 1014.4 | ||
| 20260504185017 | -17 | 0.0 | 0.0 | 0.00 | 0.03 | 0.03 | 1014.5 | ||
| 20260504184532 | -17 | 0.0 | 0.0 | 0.00 | 0.03 | 0.03 | 1014.5 | ||
| 20260504184013 | -17 | 0.0 | 0.0 | 0.00 | 0.03 | 0.03 | 1014.6 | ||
| 20260504183514 | -17 | 0.0 | 0.0 | 0.00 | 0.03 | 0.03 | 1014.6 | ||
| 20260504183031 | -17 | 0.0 | 0.0 | 0.00 | 0.03 | 0.03 | 1014.6 | ||
| 20260504182514 | -17 | 0.0 | 0.0 | 0.00 | 0.03 | 0.03 | 1014.8 | ||
| 20260504182015 | -17 | 0.0 | 0.0 | 0.00 | 0.03 | 0.03 | 1014.9 | ||
| 20260504181531 | -17 | 0.0 | 0.0 | 0.00 | 0.03 | 0.03 | 1015.0 | ||
| 20260504181011 | -17 | 0.0 | 0.0 | 0.00 | 0.03 | 0.03 | 1015.2 | ||
| 20260504180512 | -17 | 0.0 | 0.0 | 0.00 | 0.03 | 0.03 | 1015.3 | ||
| 20260504180031 | -17 | 0.0 | 0.0 | 0.00 | 0.03 | 0.03 | 1015.3 | ||
| 20260504175513 | -17 | 0.0 | 0.0 | 0.00 | 0.03 | 0.03 | 1015.4 | ||
| 20260504175016 | -17 | 0.0 | 0.0 | 0.00 | 0.03 | 0.03 | 1015.4 | ||
| 20260504174530 | -17 | 0.0 | 0.0 | 0.00 | 0.03 | 0.03 | 1015.5 | ||
| 20260504174014 | -17 | 0.0 | 0.0 | 0.00 | 0.03 | 0.03 | 1015.5 | ||
| 20260504173513 | -17 | 0.0 | 0.0 | 0.00 | 0.03 | 0.03 | 1015.5 | ||
| 20260504173042 | -17 | 0.0 | 0.0 | 0.00 | 0.03 | 0.03 | 1015.6 | ||
| 20260504172513 | -17 | 0.0 | 0.0 | 0.00 | 0.03 | 0.03 | 1015.7 | ||
| 20260504172014 | -17 | 0.0 | 0.0 | 0.00 | 0.03 | 0.03 | 1015.6 | ||
| 20260504171532 | -17 | 0.0 | 0.0 | 0.00 | 0.03 | 0.03 | 1015.8 | ||
| 20260504171013 | -17 | 0.0 | 0.0 | 0.00 | 0.03 | 0.03 | 1015.9 | ||
| 20260504170513 | -17 | 0.0 | 0.0 | 0.00 | 0.03 | 0.03 | 1015.8 | ||
| 20260504141014 | -17 | 0.0 | 0.0 | 0.00 | 0.00 | 0.00 | 1016.9 | ||
| 20260504140506 | -17 | 0.0 | 0.0 | 0.00 | 0.00 | 0.00 | 1017.0 |